weather.gov     
National Weather Service

Regional Weather Roundup
NWS Homepage
This page is being discontinued on March 12, 2014.
The same data is available at this site. Please update your bookmarks.
Thank you, and we apologize for the inconvenience.
Please send an email to SR-SRH.Webmaster@noaa.gov with any concerns.


Current Version
Previous Version:    01  02  03  04  05  06  07  08  09  10  11  12  13  14  15  16  17  18  19  20  21  22  23  24  25  26  
[Printable]
771
ASUS42 KTBW 282210
RWRFL
FLORIDA REGIONAL WEATHER ROUNDUP
NATIONAL WEATHER SERVICE TAMPA BAY RUSKIN FL
500 PM EST FRI NOV 28 2014

NOTE: "FAIR" INDICATES FEW OR NO CLOUDS BELOW 12,000 FEET WITH NO
SIGNIFICANT WEATHER AND/OR OBSTRUCTIONS TO VISIBILITY.


FLZ001>010-012>015-112-114-115-282300-
PANHANDLE FLORIDA

CITY           SKY/WX    TMP DP  RH WIND       PRES   REMARKS
PENSACOLA      CLEAR     58  29  33 NE7       30.30S
PENSACOLA NAS  CLEAR     55  32  41 SE3       30.30F
MILTON NAS     CLEAR     57  27  31 VRB3      30.31S
CRESTVIEW      CLEAR     58  25  28 NE3       30.32F
DUKE FIELD     FAIR      58  25  28 NE3       30.30F
VALPARAISO     PTCLDY    55  35  47 SW5       30.31S
MARY ESTHER    CLEAR     54  31  41 S3        30.30F
TRI COUNTY     FAIR      55  25  31 CALM      30.32F
PANAMA CITY    FAIR      56  31  38 N5        30.31R
TYNDALL AFB    CLEAR     58  35  41 N5        30.32R
APALACHICOLA   CLEAR     55  37  50 S6        30.30S

STATION/POSITION SKY/WX   TEMP    WIND        PRES    WAVE   SWELL
                          AIR SEA DIR/SP/G            HT/PER HT/PER
                          (F)     (DEG/KT/KT) (MB)    (FT/S) (FT/S)
30.1N   87.6W              55 65   70/  4/  6 1026.1F   2/ 5   2/ 5
29.2N   88.2W              58 71   80/  8/ 12 1026.9R   3/ 6   2/ 6
28.7N   86.0W              57 75   30/ 10/ 14 1026.2F   3/ 6   3/ 6
PANAMA CITY BEAC           56 63  280/  3/  4 1026.2F
CAPE SAN BLAS    NOT AVBL
TOWER C                    52      40/  3/  4 1026.1F
28.5N   84.5W              55 69   40/ 12/ 16 1025.4F   3/ 6

$$
FLZ011-016>038-118-127-128-134-139-239-282300-
NORTH FLORIDA

CITY           SKY/WX    TMP DP  RH WIND       PRES   REMARKS
MARIANNA       CLEAR     54  28  36 N6        30.31S
TALLAHASSEE    CLEAR     57  26  30 N5        30.31R
PERRY          CLEAR     54  30  39 NE3       30.31R
CROSS CITY       N/A     56  31  38 N5        30.29R
LAKE CITY      FAIR      52  32  46 N6        30.30R
GAINESVILLE    CLEAR     53  31  42 NE6       30.28F
MAYPORT NAS    PTCLDY    51  38  60 N8        30.30F
JACKSONVILLE   PTCLDY    49  36  61 NE8       30.31R
JAX NAS        CLEAR     54  36  50 NE9       30.31S
JAX CRAIG      CLEAR     51  37  58 NE6       30.31S
JAX CECIL      CLEAR     50  37  62 E6        30.30S
FERNANDINA BEA FAIR      54  37  54 N7        30.30S
ST AUGUSTINE   CLEAR     52  40  63 N9        30.30F

STATION/POSITION SKY/WX   TEMP    WIND        PRES    WAVE   SWELL
                          AIR SEA DIR/SP/G            HT/PER HT/PER
                          (F)     (DEG/KT/KT) (MB)    (FT/S) (FT/S)
SHELL POINT                56     340/  6/  8   N/A
KEATON BEACH               54      10/  4/  6 1026.2R
CEDAR KEY                  56      50/  8/ 10 1025.7F
FERNANDINA                 50 58   10/  4/  8 1026.0R
30.7N   81.3W                 61                N/A     4/ 6   2/14
MAYPORT                    51 62   20/  7/ 10   N/A
31.4N   80.9W              48 63   20/  8/ 12 1027.0R   4/ 6   3/ 6
ST AUGUSTINE               52      10/ 12/ 15 1026.2F

$$
FLZ040-043>046-052-053-057-058-063-144-282300-
INTERIOR CENTRAL FLORIDA

CITY           SKY/WX    TMP DP  RH WIND       PRES   REMARKS
THE VILLAGES     N/A     55  37  50 NE8       30.18R
LEESBURG       CLEAR     57  40  52 N12       30.28R
SANFORD        CLEAR     56  41  57 N13       30.27S
ORLANDO EXEC   CLEAR     58  41  53 NE10      30.26S
ORLANDO INTL   CLEAR     58  41  53 N14       30.26R
KISSIMMEE      CLEAR     59  43  55 NE9       30.26R
WINTER HAVEN   CLEAR     60  37  42 N7        30.26R
LAKELAND       CLEAR     57  37  47 NE8       30.26R
BARTOW         CLEAR     59  36  41 NE8       30.26R
OKEECHOBEE     CLEAR     61  45  55 N8        30.23R

$$
FLZ041-047-054-059-064-141-147-282300-
EAST CENTRAL FLORIDA

CITY           SKY/WX    TMP DP  RH WIND       PRES   REMARKS
ORMOND BEACH   PTCLDY    54  41  62 N12G17    30.28F
DAYTONA BEACH  PTCLDY    56  42  59 N12       30.28S
DELAND         CLEAR    N/A N/A N/A N8        30.29S
NEW SMYRNA BEA CLEAR     57  43  58 N14       30.27F
JFK SPACE CTR  CLEAR     59  46  63 N12G18    30.25S
TITUSVILLE     CLEAR     57  45  62 N23       30.25S
CAPE CANAVERAL CLEAR     61  46  59 N14G23    30.23S
PATRICK AFB    CLEAR     59  47  63 NW15G21   30.24R
MELBOURNE      CLEAR     60  46  59 N15       30.23S
VERO BEACH     CLEAR     59  49  69 N13G20    30.22R
FT PIERCE      PTCLDY    61  49  64 N12G18    30.21R
STUART         PTCLDY    61  50  67 N14G21    30.21S

STATION/POSITION SKY/WX   TEMP    WIND        PRES    WAVE   SWELL
                          AIR SEA DIR/SP/G            HT/PER HT/PER
                          (F)     (DEG/KT/KT) (MB)    (FT/S) (FT/S)
28.5N   80.2W              63 76  350/ 17/ 23 1022.9S
28.9N   78.5W              65 77  360/ 14/ 19 1022.5R   6/ 8   5/ 8
TRIDENT PIER               59 68  340/  9/ 14 1023.4F
28.4N   80.5W                 67                N/A     3/ 9
27.6N   80.2W                 74                N/A     5/ 5

$$
FLZ050-056-061-142-242-148-248-149-249-151-251-155-255-
160-260-282300-
WEST CENTRAL FLORIDA

CITY           SKY/WX    TMP DP  RH WIND       PRES   REMARKS
CRYSTAL RIVER  FAIR      55  28  35 NE5       30.28R
INVERNESS      FAIR      55  32  41 N5        30.28R
BROOKSVILLE    CLEAR     58  34  40 NE7       30.28R
ZEPHYRHILLS    FAIR      55  32  41 NE5       30.28R
CLEARWATER     CLEAR     59  35  40 N7        30.25S
TAMPA INTL     CLEAR     60  31  33 N8        30.26R
TAMPA EXEC     CLEAR     61  34  36 NE3       30.26S
PLANT CITY     CLEAR     59  32  36 NE8       30.27S
MACDILL AFB    CLEAR     61  36  39 E8        30.25S
PETER O KNIGHT CLEAR     61  34  36 NE10      30.25S
ST PETERSBURG  CLEAR     60  37  42 NE9       30.24S
SARASOTA       CLEAR     59  37  44 N8        30.23R
VENICE         FAIR      61  34  36 NE9       30.24S

STATION/POSITION SKY/WX   TEMP    WIND        PRES    WAVE   SWELL
                          AIR SEA DIR/SP/G            HT/PER HT/PER
                          (F)     (DEG/KT/KT) (MB)    (FT/S) (FT/S)
CEDAR KEY                  56      50/  8/ 10 1025.7F
28.5N   84.5W              55 69   40/ 12/ 16 1025.4F   3/ 6
27.3N   84.3W                 78                N/A     5/ 7
CLEARWATER BEACH           55 61   10/ 17/ 18 1024.1F
MIDDLE TAMPA BAY           59      60/ 10/ 12 1024.3S
VENICE                     61 66   30/  8/ 10 1023.5R

$$
FLZ066-069-070-075>078-162-262-165-265-282300-
SOUTHWEST FLORIDA AND KEYS

CITY           SKY/WX    TMP DP  RH WIND       PRES   REMARKS
PUNTA GORDA    CLEAR     62  36  37 NE8       30.24R
FT MYERS       CLEAR     63  35  35 NE13      30.21R
SOUTHWEST INTL CLEAR     63  36  36 NE12      30.21R
NAPLES         CLEAR     64  32  30 NE10      30.19S
MARCO ISLAND   CLEAR     64  34  32 NE9       30.19S
MARATHON       CLEAR     67  54  63 NE12G18   30.15R
KEY WEST NAS   CLEAR     64  49  57 N13G21    30.16S
KEY WEST INTL  CLEAR     67  48  50 N12       30.17S

STATION/POSITION SKY/WX   TEMP    WIND        PRES    WAVE   SWELL
                          AIR SEA DIR/SP/G            HT/PER HT/PER
                          (F)     (DEG/KT/KT) (MB)    (FT/S) (FT/S)
VENICE                     61 66   30/  8/ 10 1023.5R
NAPLES                     65 72   40/  5/ 10 1023.0R
26.0N   85.6W              65 79   30/ 16/ 19 1023.6S   5/ 7   3/13
DRY TORTUGAS               64      20/ 20/ 24 1021.8F
NW FL BAY                  69      50/ 13/ 15 1021.0S
SAND KEY                   65      20/ 19/ 23 1021.2S
SOMBRERO KEY               68      20/ 16/ 19 1021.3R
LONG KEY                   68 68   20/ 13/ 15 1021.4F
MOLASSES REEF              68 72   10/ 18/ 21 1020.5R

$$
FLZ067-068-071>074-168-172>174-282300-
SOUTHEAST FLORIDA

CITY           SKY/WX    TMP DP  RH WIND       PRES   REMARKS
W PALM BEACH   MOCLDY    66  52  60 N13       30.17S
FT LAUDER-EXEC PTCLDY    66  51  58 N8        30.17R
FT LAUDERDALE  MOCLDY    68  52  56 N9        30.16S
POMPANO BEACH  CLEAR     68  50  52 N13       30.17R
PEMBROKE PINES CLEAR     67  51  56 N10       30.18R
OPA LOCKA      CLEAR     68  51  54 N9        30.17S
MIAMI          PTCLDY    69  50  50 N8        30.17R
WEST KENDALL   CLEAR     67  51  56 N12       30.17R
HOMESTEAD      CLEAR     68  50  53 N9        30.16R

STATION/POSITION SKY/WX   TEMP    WIND        PRES    WAVE   SWELL
                          AIR SEA DIR/SP/G            HT/PER HT/PER
                          (F)     (DEG/KT/KT) (MB)    (FT/S) (FT/S)
PORT EVERGLADES            67     340/  5/ 14 1021.3
VIRGINIA KEY               68 73   10/  7/ 14 1021.6R
LAKE WORTH                 65 76  340/ 18/ 23 1021.4R




U.S. Dept. of Commerce
NOAA National Weather Service
1325 East West Highway
Silver Spring, MD 20910
E-mail: w-nws.webmaster@noaa.gov
Page last modified: May 16, 2007
NATIONAL WEATHER SERVICE: for Safety, for Work, for Fun - FOR LIFE